Weather History for Banff, AB

Change the Weather History Date:

Tuesday, November 5, 2013

  Actual Average Record
Temperature  
Mean Temperature 16 °F -  
Max Temperature 28 °F - - ()
Min Temperature 5 °F - - ()
Degree Days  
Heating Degree Days 48    
Moisture  
Dew Point 13 °F    
Average Humidity 81    
Maximum Humidity 92    
Minimum Humidity 66    
Precipitation  
Precipitation 0.00 in - - ()
Sea Level Pressure  
Sea Level Pressure 30.14 in    
Wind  
Wind Speed 6 mph ()    
Max Wind Speed 10 mph    
Max Gust Speed 17 mph    
T = Trace of Precipitation, MM = Missing Value Source: Averaged Metar Reports

Daily Weather History Graph

Daily Weather History Graph

Search for Another Location

Airport:

Trip Planner

Search our weather history database for the weather conditions in past years. The results will help you decide how hot, cold, wet, or windy it might be!

Date:

Astronomy

Nov. 05, 2013 Rise Set
Actual Time 7:42 AM MST 5:08 PM MST
Civil Twilight 7:07 AM MST 5:43 PM MST
Nautical Twilight 6:27 AM MST 6:23 PM MST
Astronomical Twilight 5:48 AM MST 7:01 PM MST
Moon 10:12 AM MST (11/5) 7:03 PM MST (11/5)
Length of Visible Light 10h 36m
Length of Day
9h 25m
Waxing Crescent, 7% of the Moon is Illuminated
Nov 5
Waxing Crescent
Nov 9
First Quarter
Nov 17
Full
Nov 25
Last Quarter
Dec 2
New

Hourly Weather History & Observations

Time (MST) Temp. Windchill Dew Point Humidity Pressure Visibility Wind Dir Wind Speed Gust Speed Precip Events Conditions
12:00 AM 12.6 °F 1.1 °F 9.1 °F 86% 30.15 in - WSW 8.1 mph - N/A   Unknown
1:00 AM 11.7 °F 0.0 °F 8.2 °F 86% 30.16 in - WSW 8.1 mph - N/A   Unknown
2:00 AM 10.9 °F 0.2 °F 7.3 °F 85% 30.14 in - SW 6.9 mph - N/A   Unknown
3:00 AM 10.6 °F -1.3 °F 7.3 °F 87% 30.15 in - SW 8.1 mph - N/A   Unknown
4:00 AM 10.4 °F -2.4 °F 7.0 °F 86% 30.15 in - SW 9.2 mph - N/A   Unknown
5:00 AM 10.0 °F 0.4 °F 6.6 °F 86% 30.15 in - SW 5.8 mph - N/A   Unknown
6:00 AM 11.5 °F 3.5 °F 9.1 °F 90% 30.15 in - West 4.6 mph - N/A   Unknown
7:00 AM 10.6 °F 2.5 °F 7.3 °F 87% 30.16 in - WSW 4.6 mph - N/A   Unknown
8:00 AM 5.5 °F - 1.9 °F 85% 30.19 in - NNE 1.2 mph - N/A   Unknown
9:00 AM 13.6 °F 3.5 °F 9.3 °F 83% 30.17 in - WSW 6.9 mph - N/A   Unknown
10:00 AM 17.4 °F 8.0 °F 11.1 °F 76% 30.18 in - SW 6.9 mph - N/A   Unknown
11:00 AM 22.3 °F 11.5 °F 13.8 °F 70% 30.16 in - SW 10.4 mph 17.3 mph N/A   Unknown
12:00 PM 23.4 °F 13.5 °F 14.9 °F 70% 30.14 in - SW 9.2 mph - N/A   Unknown
1:00 PM 26.6 °F 17.5 °F 16.7 °F 66% 30.12 in - SW 9.2 mph - N/A   Unknown
2:00 PM 26.8 °F 17.7 °F 18.0 °F 69% 30.10 in - SW 9.2 mph - N/A   Unknown
3:00 PM 27.5 °F 18.6 °F 18.1 °F 68% 30.11 in - WSW 9.2 mph - N/A   Unknown
4:00 PM 28.2 °F 20.2 °F 18.9 °F 68% 30.11 in - SW 8.1 mph - N/A   Unknown
5:00 PM 26.1 °F 19.4 °F 19.4 °F 76% 30.11 in - SW 5.8 mph - N/A   Unknown
6:00 PM 24.8 °F 19.1 °F 19.6 °F 81% 30.12 in - SW 4.6 mph - N/A   Unknown
7:00 PM 23.0 °F 18.4 °F 19.0 °F 85% 30.15 in - WSW 3.5 mph - N/A   Unknown
8:00 PM 22.3 °F 17.6 °F 19.6 °F 89% 30.14 in - WSW 3.5 mph - N/A   Unknown
9:00 PM 21.7 °F 17.0 °F 19.6 °F 91% 30.15 in - WSW 3.5 mph - N/A   Unknown
10:00 PM 21.9 °F 15.7 °F 19.9 °F 92% 30.15 in - WSW 4.6 mph - N/A   Unknown
11:00 PM 21.7 °F - 19.0 °F 89% 30.16 in - WSW 2.3 mph - N/A   Unknown